Location: Taaricht
(32.5378°N, 5.4251°W)
Time: 15:58:18
(UTC+00:00)

H-2A R/B - Pass Details

Date: 09 April 2020
Orbit: 734 x 836 km, 98.2° (Epoch: 26 May)

Event Time Altitude Azimuth Distance (km) Brightness Sun altitude
Exits shadow 19:53:50 - 162° (SSE) 2,846 4.6 -14.3°
Reaches altitude 10° 19:55:02 10° 161° (SSE) 2,367 4.2 -14.6°
Maximum altitude 20:00:16 77° 76° (ENE) 807 2.0 -15.6°
Drops below altitude 10° 20:05:21 10° 351° (N) 2,313 4.9 -16.6°
Sets 20:07:38 0° 350° (N) 3,228 5.7 -17.0°
